Dewpoint
31 39 52 56 60 62 63 64 66 67 68 66 65 65 64 66 66 66 67 66 66 66 65 62 61 63 62 62 62 61 59 59 59 56 56 56 55 56 56 57 58 58 57
31 35 44 51 56 57 63 65 65 66 66 65 65 65 65 66 66 66 66 67 65 64 62 63 62 62 60 61 61 61 58 59 59 55 53 50 51 52 54 55 54 55 56
32 33 42 50 55 57 57 62 64 66 65 66 66 65 66 65 65 65 63 63 62 62 63 62 61 59 59 58 59 59 59 57 57 57 53 50 47 50 52 53 53 52 52
41 43 47 50 55 59 61 61 63 65 65 66 65 65 64 62 62 61 58 55 59 59 59 58 56 56 55 56 56 57 58 58 56 56 57 55 53 49 47 49 50 51 50
45 46 50 52 56 60 62 63 64 63 64 65 65 65 65 62 60 53 52 52 55 55 54 54 55 55 55 55 56 56 56 57 56 55 55 55 51 51 48 47 44 47 48
45 50 53 57 58 60 62 63 63 63 64 66 66 66 64 58 50 49 48 48 51 53 55 54 55 55 55 55 54 55 55 55 56 56 55 54 50 47 46 46 46 45 48
47 51 54 56 58 60 61 62 63 64 65 65 66 65 60 53 49 47 44 46 47 50 52 54 55 54 55 54 53 54 53 53 54 54 55 54 54 53 52 50 47 43 43
48 52 55 57 58 60 61 62 63 62 64 65 63 57 51 48 44 46 45 46 46 48 51 54 54 54 53 52 53 52 52 53 53 53 53 52 52 52 52 50 47 43 39
45 51 54 58 59 61 61 63 64 63 63 59 53 52 52 49 48 50 52 50 51 50 53 53 53 53 53 52 52 51 52 52 51 52 51 51 51 51 51 52 49 46 37
44 49 53 56 58 60 61 63 63 57 52 50 50 49 51 52 52 52 53 52 52 53 52 52 52 52 52 52 52 51 51 51 50 49 48 48 49 49 49 50 51 49 46
43 46 50 53 55 56 58 58 55 48 47 48 50 52 53 52 52 51 51 52 52 51 50 50 50 49 50 51 51 51 51 50 49 48 48 48 48 47 48 49 49 48 48
42 44 47 50 51 51 52 50 49 48 48 49 49 50 50 50 50 50 49 49 49 48 46 47 48 48 48 50 50 50 49 48 48 48 48 47 46 46 47 46 45 46 46
40 42 46 48 48 47 45 44 45 47 48 45 46 48 49 49 48 47 46 43 41 41 43 42 43 44 46 48 49 49 48 48 47 47 47 45 46 45 44 44 44 44 44
39 40 42 45 48 48 46 44 45 45 43 42 44 46 47 46 45 42 41 41 41 41 40 41 42 44 46 47 48 48 47 47 47 46 46 46 44 43 42 42 42 42 42
40 41 42 43 44 47 48 46 44 43 43 43 43 45 45 42 41 41 40 41 43 41 41 41 42 44 46 46 47 47 46 46 46 46 45 45 43 41 40 40 40 40 41
40 41 41 41 42 43 45 43 43 43 43 42 39 39 39 38 40 40 41 41 41 40 42 42 43 44 46 42 42 44 46 45 45 44 44 43 41 40 38 38 38 39 37
41 41 42 42 41 42 42 42 42 42 38 35 35 37 37 37 38 39 39 38 40 42 43 43 43 45 47 41 41 40 44 44 44 43 42 41 39 39 40 39 38 37 36
41 42 43 41 40 40 41 41 39 36 35 35 34 36 37 37 38 39 39 40 41 42 43 43 44 45 45 41 40 39 42 43 44 41 41 41 40 40 40 38 38 37 36
42 42 41 39 40 40 40 36 33 35 35 34 35 36 39 38 37 38 39 42 43 43 43 43 43 43 44 40 39 39 41 39 39 39 41 43 39 38 37 36 35 35 34
37 37 38 39 39 39 37 36 34 36 34 35 36 38 39 38 37 39 42 43 43 42 43 41 41 40 44 41 39 39 42 40 38 37 38 37 39 37 35 37 35 33 33
35 37 37 37 37 37 36 37 41 36 36 39 39 39 38 38 39 41 42 42 42 42 42 40 40 40 41 41 38 38 40 39 38 37 37 38 36 36 36 37 36 35 35
35 34 34 34 34 34 33 35 39 41 39 40 39 39 41 40 39 41 42 41 41 42 41 40 40 42 40 37 37 37 37 38 37 35 36 36 36 35 36 35 35 34 34
32 30 28 30 32 32 32 36 40 42 42 41 42 41 40 40 41 41 41 42 40 41 40 39 39 38 38 37 35 35 36 35 36 36 35 35 35 34 34 35 34 34 34
27 24 29 31 35 36 36 39 40 40 39 39 39 40 41 40 41 41 41 42 42 40 39 37 38 37 37 38 36 36 38 35 34 33 34 34 33 35 33 33 33 34 33
28 29 30 34 35 37 38 37 37 37 36 36 36 37 38 39 40 42 39 39 38 40 38 38 37 35 34 34 34 35 35 34 33 33 33 32 33 33 33 34 34 34 34
32 34 35 35 35 35 35 36 37 36 35 34 35 37 38 40 40 39 36 35 34 34 34 34 34 35 34 34 34 34 34 34 32 34 33 32 32 33 33 34 34 35 33
Lifted_Index
4 3 1 -1 -2 -3 -3 -4 -4 -3 -3 -2 -2 -2 -2 -2 -2 -2 -2 -2 -3 -2 -2 -1 -1 -1 -1 -1 -1 -0 0 0 1 2 2 2 3 3 2 2 2 2 2
4 4 2 1 -0 -1 -2 -3 -3 -3 -3 -2 -2 -2 -2 -2 -2 -3 -3 -3 -2 -2 -1 -1 -0 0 0 -0 -0 0 0 1 1 2 2 3 3 3 2 2 2 2 2
4 4 3 2 1 -0 -1 -2 -3 -3 -3 -2 -2 -2 -2 -3 -3 -3 -2 -2 -1 -0 0 0 1 2 2 1 1 1 1 1 1 2 2 3 3 3 3 3 2 2 2
3 3 3 2 1 -0 -1 -2 -2 -3 -3 -3 -3 -3 -3 -3 -2 -1 -0 1 1 1 2 2 3 3 3 2 2 2 1 1 1 2 2 2 3 3 3 3 2 2 2
3 2 2 1 0 -0 -1 -1 -2 -2 -3 -3 -3 -4 -3 -3 -1 1 3 3 3 3 4 4 4 4 3 2 2 2 2 2 1 2 2 2 2 2 3 3 3 2 2
2 2 1 1 1 0 -0 -1 -2 -2 -3 -3 -4 -4 -3 -1 1 4 5 5 5 4 4 4 4 3 3 3 3 3 3 2 2 1 1 1 2 2 2 2 3 3 3
2 2 1 1 1 1 -0 -1 -2 -2 -3 -3 -3 -2 -1 2 4 6 6 6 6 5 4 4 3 3 3 4 4 4 3 3 2 1 1 1 1 1 2 2 3 3 3
2 1 1 1 1 0 -0 -1 -2 -2 -3 -2 -1 0 3 5 6 6 6 6 5 5 4 4 4 4 4 4 4 4 3 3 2 2 2 1 1 1 2 2 3 3 4
2 2 1 1 0 -0 -1 -2 -2 -2 -1 -0 1 3 5 6 6 6 5 5 5 4 4 4 4 5 5 5 4 4 3 2 2 2 2 3 3 3 2 2 2 3 3
3 2 2 1 1 -0 -1 -1 -1 0 1 2 4 5 5 5 5 5 4 4 4 4 5 5 5 5 5 5 4 3 3 2 2 3 3 4 4 3 2 2 1 1 2
4 3 3 2 2 1 1 1 2 3 4 5 6 6 6 6 5 5 5 5 5 5 6 6 6 6 6 5 4 3 3 3 3 3 3 4 3 3 2 1 0 1 1
4 4 4 3 3 3 3 4 5 6 6 7 7 7 7 7 6 6 6 6 7 7 7 7 7 7 6 5 4 3 3 3 4 4 3 2 2 1 1 1 1 1 2
5 5 5 4 4 4 4 5 5 6 7 8 8 8 8 8 8 8 8 8 8 9 9 9 8 7 6 5 4 3 4 4 4 3 2 1 1 1 1 2 2 3 3
5 5 5 5 5 5 4 4 5 6 7 8 8 9 9 9 9 9 9 9 9 10 10 10 9 8 6 5 4 4 4 4 3 2 1 1 1 1 2 2 3 4 5
5 5 6 6 5 5 4 4 4 5 6 7 9 9 10 10 10 10 10 9 10 10 10 10 9 8 6 6 5 5 5 4 2 1 1 1 1 2 2 3 4 5 5
5 5 5 6 6 5 5 4 4 4 5 7 9 10 10 10 10 10 10 10 10 10 10 9 8 7 6 6 6 5 4 2 1 1 1 1 2 2 3 4 5 6 6
4 5 5 5 6 6 5 4 4 4 6 8 9 10 10 10 10 10 10 10 10 10 10 9 8 7 6 6 5 4 3 1 1 1 1 2 2 3 4 5 6 6 6
5 5 5 5 6 6 5 5 5 5 7 9 10 10 10 10 10 10 10 10 10 10 9 9 8 7 6 6 5 3 2 1 1 1 2 2 3 3 4 5 6 6 6
6 5 6 6 6 6 6 6 6 7 8 9 10 10 10 10 10 10 10 10 10 9 9 8 7 7 6 5 4 3 2 2 2 2 2 3 3 4 5 6 6 6 6
6 6 6 6 6 6 7 7 8 8 9 10 10 10 10 10 10 10 9 9 9 9 9 8 7 6 5 4 3 3 3 3 3 3 3 3 3 4 5 6 6 6 6
6 6 6 6 6 7 7 8 8 9 10 10 10 10 10 10 10 9 9 9 8 8 8 8 7 6 4 4 4 4 4 3 3 4 4 4 4 4 6 6 6 6 6
6 6 6 7 7 8 8 9 9 10 11 11 11 11 10 10 10 9 9 8 8 8 8 8 6 5 4 4 4 4 4 4 4 4 4 4 4 5 6 7 7 6 6
6 6 7 7 8 9 10 10 10 11 11 11 11 11 10 10 10 9 9 8 8 7 7 7 5 4 4 4 4 4 4 4 4 4 4 4 5 5 6 7 7 7 7
6 7 8 8 9 10 10 10 11 11 11 10 10 10 10 10 9 9 8 8 8 7 7 5 4 4 4 4 5 5 5 5 5 5 4 4 5 5 6 7 7 7 7
7 8 9 9 10 10 10 10 11 11 10 10 10 10 10 9 8 8 8 8 7 7 6 5 4 4 4 5 5 5 6 6 6 6 5 5 5 5 6 7 7 7 7
8 8 9 10 10 10 10 10 11 10 10 10 10 10 9 9 8 8 7 7 6 6 5 5 5 5 5 5 5 6 6 6 6 6 5 5 5 5 6 7 7 7 7